Regional Weather Roundup
Issued by NWS

Home | Current Version | Previous Version | Graphics & Text | Print | Product List | Glossary On
Versions: 1 2 3 4 5 6 7 8 9 10 11 12 13 14 15 16 17 18 19 20 21 22 23 24 25 26 27 28
000
ASUS45 KBOI 012210
RWRID

IDAHO REGIONAL WEATHER ROUNDUP
NATIONAL WEATHER SERVICE BOISE ID
300 PM MST THU DEC 01 2016

NOTE: "FAIR" INDICATES FEW OR NO CLOUDS BELOW 12000 FEET
WITH NO SIGNIFICANT WEATHER AND/OR OBSTRUCTIONS TO VISIBILITY

IDZ012-014-012300-
SOUTHWEST IDAHO


CITY           SKY/WX    TMP DP  RH WIND       PRES   REMARKS
BOISE          CLOUDY    39  27  62 NW13      30.15F WCI  31
CALDWELL       PTSUNNY   42  27  55 NW16      30.18S
MOUNTAIN HOME  PTSUNNY   39  26  58 NW17      30.14S WCI  30
$$

IDZ016-017-012300-
SOUTHCENTRAL IDAHO


CITY           SKY/WX    TMP DP  RH WIND       PRES   REMARKS
BURLEY         CLOUDY    35  22  58 W20G25    30.06S WCI  24
JEROME         PTSUNNY   35  25  66 W20       30.08R WCI  24
TWIN FALLS     PTSUNNY   35  22  58 W20G26    30.08S WCI  24
$$

IDZ019>023-012300-
SOUTHEAST IDAHO


CITY           SKY/WX    TMP DP  RH WIND       PRES   REMARKS
IDAHO FALLS    CLOUDY    29  23  78 SW16      30.05S WCI  17
POCATELLO      CLOUDY    30  23  75 SW12      30.07F WCI  20
REXBURG        CLOUDY    27  23  85 SW13      30.04R WCI  16
$$

IDZ006-010-011-018-031-032-012300-
CENTRAL IDAHO MOUNTAINS


CITY           SKY/WX    TMP DP  RH WIND       PRES   REMARKS
MCCALL         CLOUDY    28  21  75 W3        30.06S
HAILEY         PTSUNNY   30  25  80 SE12      30.01S WCI  21
STANLEY          N/A     25  17  72 CALM      30.01R
SALMON         CLOUDY    34  25  69 SW3       30.05S
CHALLIS        CLOUDY    31  24  75 NE3       30.02R
$$

IDZ002-004-006-007-026-012300-
NORTHERN IDAHO


CITY           SKY/WX    TMP DP  RH WIND       PRES   REMARKS
LEWISTON       PTSUNNY  N/A N/A N/A NW8       30.17R
LOWELL           N/A     37  35  92 CALM      30.21R
COEUR D`ALENE  CLOUDY    36  34  92 SW6       30.15R WCI  31
MULLAN PASS    SNOW      23  21  92 NW5       29.99R VSB 1/4 WCI  17
$$




USA.gov is the U.S. government's official web portal to all federal, state and local government web resources and services.